Hourly Weather Pegunungan Dieng

Today, 15 April, Thursday

Time Temperature Precipitation Wind Pressure Humidity
00:00 +14°C° 0.7 mm 1 mps 611 mmHg 94%
01:00 +14°C° 0 mm 1 mps 611 mmHg 93%
02:00 +14°C° 0.2 mm 1 mps 611 mmHg 93%
03:00 +13°C° 0.2 mm 1 mps 610 mmHg 93%
04:00 +13°C° 0.2 mm 1 mps 610 mmHg 92%
05:00 +14°C° 0 mm 1 mps 611 mmHg 91%
06:00 +15°C° 0 mm 1 mps 611 mmHg 89%
07:00 +14°C° 0 mm 0 mps 612 mmHg 87%
08:00 +18°C° 0.1 mm 1 mps 612 mmHg 81%
09:00 +19°C° 0.1 mm 1 mps 613 mmHg 75%
10:00 +21°C° 0.1 mm 1 mps 614 mmHg 69%
11:00 +20°C° 0.6 mm 1 mps 613 mmHg 71%
12:00 +20°C° 0.6 mm 1 mps 612 mmHg 73%
13:00 +20°C° 0 mm 1 mps 612 mmHg 75%
14:00 +19°C° 1 mm 1 mps 612 mmHg 78%
15:00 +19°C° 1 mm 1 mps 611 mmHg 81%
16:00 +18°C° 1 mm 1 mps 611 mmHg 84%
17:00 +16°C° 0.8 mm 1 mps 611 mmHg 87%
18:00 +14°C° 0.8 mm 0 mps 611 mmHg 90%
19:00 +14°C° 0.8 mm 0 mps 611 mmHg 93%
20:00 +13°C° 0.4 mm 0 mps 611 mmHg 93%
21:00 +13°C° 0.4 mm 0 mps 612 mmHg 93%
22:00 +14°C° 0.4 mm 1 mps 612 mmHg 93%
23:00 +14°C° 0.1 mm 1 mps 611 mmHg 93%

Tomorrow, 16 April, Friday

Time Temperature Precipitation Wind Pressure Humidity
00:00 +14°C° 0.1 mm 1 mps 611 mmHg 92%
01:00 +14°C° 0.1 mm 1 mps 611 mmHg 92%
02:00 +14°C° 0 mm 1 mps 610 mmHg 92%
03:00 +13°C° 0 mm 1 mps 610 mmHg 91%
04:00 +13°C° 0 mm 1 mps 610 mmHg 91%
05:00 +14°C° 0 mm 1 mps 611 mmHg 89%
06:00 +15°C° 0 mm 1 mps 611 mmHg 88%
07:00 +15°C° 0 mm 1 mps 612 mmHg 86%
08:00 +18°C° 0 mm 1 mps 612 mmHg 78%
09:00 +19°C° 0 mm 1 mps 613 mmHg 70%
10:00 +21°C° 0 mm 1 mps 614 mmHg 63%
11:00 +21°C° 0.1 mm 1 mps 613 mmHg 63%
12:00 +21°C° 0.1 mm 1 mps 613 mmHg 64%
13:00 +20°C° 0.1 mm 2 mps 612 mmHg 64%
14:00 +20°C° 0.7 mm 1 mps 612 mmHg 71%
15:00 +19°C° 0.7 mm 1 mps 611 mmHg 77%
16:00 +18°C° 0.7 mm 1 mps 611 mmHg 83%
17:00 +16°C° 0.5 mm 1 mps 611 mmHg 86%
18:00 +16°C° 0.5 mm 1 mps 611 mmHg 89%
19:00 +14°C° 0.5 mm 0 mps 611 mmHg 91%
20:00 +15°C° 0.1 mm 1 mps 611 mmHg 91%
21:00 +15°C° 0.1 mm 1 mps 612 mmHg 92%
22:00 +14°C° 0.1 mm 1 mps 612 mmHg 92%
23:00 +14°C° 0.1 mm 1 mps 612 mmHg 92%

Day after tomorrow, 17 April, Saturday

Time Temperature Precipitation Wind Pressure Humidity
00:00 +14°C° 0.1 mm 1 mps 611 mmHg 92%
01:00 +14°C° 0.1 mm 1 mps 611 mmHg 92%
02:00 +14°C° 0 mm 1 mps 611 mmHg 92%
03:00 +13°C° 0 mm 1 mps 611 mmHg 92%
04:00 +13°C° 0 mm 1 mps 611 mmHg 92%
05:00 +14°C° 0 mm 1 mps 611 mmHg 91%
06:00 +15°C° 0 mm 1 mps 612 mmHg 89%
07:00 +15°C° 0 mm 1 mps 612 mmHg 87%
08:00 +18°C° 0 mm 1 mps 613 mmHg 79%
09:00 +19°C° 0 mm 1 mps 613 mmHg 72%
10:00 +21°C° 0 mm 1 mps 614 mmHg 64%
11:00 +21°C° 0.2 mm 1 mps 614 mmHg 64%
12:00 +21°C° 0.2 mm 1 mps 613 mmHg 63%
13:00 +20°C° 0.2 mm 2 mps 613 mmHg 63%
14:00 +20°C° 0.4 mm 1 mps 612 mmHg 69%
15:00 +20°C° 0.4 mm 1 mps 612 mmHg 74%
16:00 +19°C° 0.4 mm 1 mps 611 mmHg 80%
17:00 +18°C° 0.5 mm 1 mps 611 mmHg 84%
18:00 +16°C° 0.5 mm 1 mps 611 mmHg 88%
19:00 +15°C° 0.5 mm 1 mps 611 mmHg 93%
20:00 +15°C° 0.2 mm 1 mps 612 mmHg 92%
21:00 +14°C° 0.2 mm 1 mps 612 mmHg 92%
22:00 +14°C° 0.2 mm 1 mps 612 mmHg 92%
23:00 +13°C° 0 mm 0 mps 612 mmHg 91%

18 April, Sunday

Time Temperature Precipitation Wind Pressure Humidity
00:00 +13°C° 0 mm 0 mps 611 mmHg 91%
01:00 +13°C° 0 mm 0 mps 611 mmHg 91%
02:00 +13°C° 0 mm 0 mps 611 mmHg 90%
03:00 +13°C° 0 mm 0 mps 611 mmHg 90%
04:00 +13°C° 0 mm 0 mps 611 mmHg 90%
05:00 +13°C° 0 mm 0 mps 611 mmHg 89%
06:00 +14°C° 0 mm 0 mps 612 mmHg 87%
07:00 +14°C° 0 mm 0 mps 612 mmHg 85%
08:00 +16°C° 0.2 mm 0 mps 613 mmHg 80%
09:00 +19°C° 0.2 mm 1 mps 613 mmHg 75%
10:00 +20°C° 0.2 mm 1 mps 614 mmHg 70%
11:00 +20°C° 0.7 mm 1 mps 613 mmHg 71%
12:00 +20°C° 0.7 mm 1 mps 613 mmHg 73%
13:00 +20°C° 0.7 mm 1 mps 612 mmHg 74%
14:00 +19°C° 1 mm 1 mps 612 mmHg 77%
15:00 +19°C° 1 mm 1 mps 611 mmHg 79%
16:00 +16°C° 1 mm 0 mps 611 mmHg 82%
17:00 +15°C° 0.9 mm 0 mps 611 mmHg 85%
18:00 +14°C° 0.9 mm 0 mps 611 mmHg 89%
19:00 +13°C° 0.9 mm 0 mps 611 mmHg 92%
20:00 +13°C° 1 mm 0 mps 611 mmHg 92%
21:00 +14°C° 1 mm 1 mps 611 mmHg 92%
22:00 +14°C° 1 mm 1 mps 612 mmHg 92%
23:00 +14°C° 0.8 mm 1 mps 611 mmHg 92%

19 April, Monday

Time Temperature Precipitation Wind Pressure Humidity
00:00 +14°C° 0.8 mm 1 mps 611 mmHg 92%
01:00 +14°C° 0.8 mm 1 mps 611 mmHg 91%
02:00 +14°C° 0.7 mm 1 mps 611 mmHg 91%
03:00 +14°C° 0.7 mm 1 mps 611 mmHg 91%
04:00 +14°C° 0.7 mm 1 mps 611 mmHg 90%
05:00 +14°C° 0 mm 1 mps 611 mmHg 89%
06:00 +14°C° 0 mm 0 mps 611 mmHg 88%
07:00 +14°C° 0 mm 0 mps 612 mmHg 87%
08:00 +16°C° 0.1 mm 1 mps 612 mmHg 81%
09:00 +19°C° 0.1 mm 1 mps 613 mmHg 76%
10:00 +20°C° 0.1 mm 1 mps 613 mmHg 71%
11:00 +20°C° 1.2 mm 1 mps 613 mmHg 72%
12:00 +20°C° 1.2 mm 1 mps 612 mmHg 73%
13:00 +20°C° 1.2 mm 1 mps 612 mmHg 75%
14:00 +19°C° 1.5 mm 1 mps 611 mmHg 78%
15:00 +19°C° 1.5 mm 1 mps 611 mmHg 81%
16:00 +18°C° 1.5 mm 1 mps 610 mmHg 84%
17:00 +16°C° 1.1 mm 1 mps 611 mmHg 87%
18:00 +15°C° 1.1 mm 1 mps 611 mmHg 90%
19:00 +15°C° 1.1 mm 1 mps 611 mmHg 93%
20:00 +14°C° 0.3 mm 1 mps 611 mmHg 93%
21:00 +14°C° 0.3 mm 1 mps 611 mmHg 93%
22:00 +14°C° 0.3 mm 1 mps 611 mmHg 94%
23:00 +14°C° 0.2 mm 1 mps 611 mmHg 93%

20 April, Tuesday

Time Temperature Precipitation Wind Pressure Humidity
00:00 +13°C° 0.2 mm 1 mps 611 mmHg 93%
01:00 +13°C° 0.2 mm 1 mps 610 mmHg 92%
02:00 +13°C° 0 mm 1 mps 610 mmHg 91%
03:00 +12°C° 0 mm 1 mps 610 mmHg 91%
04:00 +12°C° 0 mm 1 mps 610 mmHg 90%
05:00 +13°C° 0 mm 1 mps 610 mmHg 88%
06:00 +13°C° 0 mm 1 mps 611 mmHg 86%
07:00 +14°C° 0 mm 1 mps 611 mmHg 85%
08:00 +16°C° 0 mm 1 mps 612 mmHg 77%
09:00 +18°C° 0 mm 1 mps 612 mmHg 69%
10:00 +20°C° 0 mm 1 mps 613 mmHg 61%
11:00 +20°C° 0 mm 2 mps 613 mmHg 61%
12:00 +20°C° 0 mm 2 mps 612 mmHg 61%
13:00 +20°C° 0 mm 2 mps 612 mmHg 61%
14:00 +19°C° 0.2 mm 2 mps 612 mmHg 66%
15:00 +18°C° 0.2 mm 2 mps 611 mmHg 72%
16:00 +18°C° 0.2 mm 1 mps 611 mmHg 78%
17:00 +16°C° 0.1 mm 1 mps 611 mmHg 82%
18:00 +15°C° 0.1 mm 1 mps 611 mmHg 86%
19:00 +14°C° 0.1 mm 1 mps 611 mmHg 90%
20:00 +14°C° 0 mm 1 mps 611 mmHg 90%
21:00 +13°C° 0 mm 1 mps 611 mmHg 90%
22:00 +13°C° 0 mm 1 mps 611 mmHg 90%
23:00 +13°C° 0 mm 1 mps 611 mmHg 89%
Show more

We Need Your Consent

Meteoprog and our Service Providers may store and access personal data such as cookies, device identifiers or other similar technologies on your device and process such data to personalise content and ads, as well as provide social media features and to analyse the traffic.

  • Store and/or access information on your device

    Cookies, device identifiers or other information can be stored or accessed on your device for the purposes indicated above.

  • Personalised ads and content, ad and content measurement, audience insights, and products development

    Ads and content can be personalised based on a profile. More data can be added to better personalise ads and content. Ad and content performance can be measured. Insights about the audience who saw the ads and content can be derived. Such data can be used to develop or improve user’s experience, systems and software.

By clicking ‘I Agree’ you will allow the use of indicated cookies, device identifiers, web beacons or other similar technologies. Your settings can be changed in the browser on your device.

For certain purposes, legitimate interests may be relied on, rather than consent. You can read more about this in our Privacy and Cookie Policy.